"Pseudo-MPEC" for P21IFYo

Created 2023 Sep 27 1:22:13 UT using Find_Orb

Click here for an explanation of pseudo-MPECs

 
 Astrometry: 
     P21IFYo* C2023 09 0726Astrometry;CFBql!l12@A45:5QlD$credacted;o7t(i:8%/5F52
     P21IFYo  C2023 09 07K+,,S)?MJAb`5wk\uJEj;ssAbg3hPIm[/egH`jM',gq)XSX\RHxKF52
     P21IFYo  C2023 09 07usg-/l0#'shI6k/k2click+bo=o'GOxL%q9AXIhhoHhereR9NXWsF52
     P21IFYo  C2023 09 07D[mZPNforZQ#2#\]explanationpXsF^yohRopdMibiJ/IT]]_;oF51
     P21IFYo  C2023 09 07QS2/o,U-_%b;m:1=Y^,u'0++Bh#78?ik+x:7.!Q3clZ$#w7;]2wmF51

Station data:
(F51) Pan-STARRS 1, Haleakala  (N20.707234 W156.255910)  US/Hawaii.
   Observers J. Bulger, T. Lowe, A. Schultz, M. Willman. Measurers K.
   Chambers, S. Chastel, T. de Boer, L. Denneau, J. Fairlamb, H. Flewelling,
   M. Huber, C.-C. Lin, E. Magnier, Y. Ramanjooloo, R. Wainscoat, R. Weryk.
   1.8-m Ritchey-Chrétien + CCD.
(F52) Pan-STARRS 2, Haleakala  (N20.707382 W156.255910)  US/Hawaii.
   Observers J. Bulger, T. Dukes, T. Lowe, A. Schultz, M. Willman. Measurers
   K. Chambers, S. Chastel, T. de Boer, L. Denneau, J. Fairlamb, H.
   Flewelling, M. Huber, C.-C. Lin, E. Magnier, Y. Ramanjooloo, R. Wainscoat,
   R. Weryk. 1.8-m Ritchey-Chrétien + CCD.

Orbital elements:  P21IFYo
   Perihelion 2022 Sep 20.31488 +/- 260 TT =  7:33:25 (JD 2459842.81488)
Epoch 2023 Sep  7.0 TT = JDT 2460194.5   Earth MOID: 0.0746      AutoNEOCP
M 166.85804248 +/- 110              (J2000 ecliptic)
n   0.47445294 +/- 0.383            Peri.  256.14254 +/- 70
a   1.62807329 +/- 0.876            Node   227.87162 +/- 52
e   0.5042749 +/- 0.213             Incl.   35.83822 +/- 17
P   2.08/758.75d           H 18.01  G  0.15   U 12.1  SR
q 0.80707666 +/- 1.24    Q 2.44906991 +/- 48.8
From 5 observations 2023 Sept. 7 (3.0 hr); mean residual 0".07
Residuals in arcseconds: 
230907 F52  .00   .05+    230907 F52  .09+  .05-    230907 F51  .07-  .11+    
230907 F52  .07-  .01-    230907 F51  .06+  .09-    

Ephemerides (geocentric):
Date (UTC) HH   RA             Dec           delta  r     elong  mag " sig PA
---- --------  ------------   ------------  ------ ------ -----  --- --------
2023 09 27 01  17 58 42.686   +13 46 53.87  2.2865 2.4483  87.0 22.9 2193  68
2023 09 27 02  17 58 44.666   +13 46 28.69  2.2869 2.4483  87.0 22.9 2201  68
2023 09 27 03  17 58 46.648   +13 46 03.51  2.2874 2.4484  87.0 22.9 2210  68
2023 09 27 04  17 58 48.632   +13 45 38.35  2.2878 2.4484  86.9 22.9 2219  68
2023 09 27 05  17 58 50.619   +13 45 13.20  2.2883 2.4484  86.9 22.9 2228  68
2023 09 27 06  17 58 52.607   +13 44 48.06  2.2888 2.4484  86.9 22.9 2237  68
2023 09 27 07  17 58 54.597   +13 44 22.93  2.2892 2.4484  86.9 22.9 2246  68
2023 09 27 08  17 58 56.589   +13 43 57.81  2.2897 2.4484  86.8 22.9 2255  68
2023 09 27 09  17 58 58.583   +13 43 32.70  2.2901 2.4484  86.8 22.9 2264  68
2023 09 27 10  17 59 00.579   +13 43 07.60  2.2906 2.4484  86.8 22.9 2273  68
2023 09 27 11  17 59 02.578   +13 42 42.51  2.2910 2.4484  86.8 22.9 2282  68
2023 09 27 12  17 59 04.578   +13 42 17.44  2.2915 2.4484  86.7 22.9 2291  68
2023 09 27 13  17 59 06.580   +13 41 52.37  2.2919 2.4484  86.7 22.9 2300  68
2023 09 27 14  17 59 08.584   +13 41 27.31  2.2924 2.4484  86.7 22.9 2309  68
2023 09 27 15  17 59 10.590   +13 41 02.27  2.2929 2.4484  86.7 22.9 2318  68
2023 09 27 16  17 59 12.598   +13 40 37.24  2.2933 2.4485  86.6 22.9 2327  68
2023 09 27 17  17 59 14.609   +13 40 12.21  2.2938 2.4485  86.6 22.9 2336  68
2023 09 27 18  17 59 16.621   +13 39 47.20  2.2942 2.4485  86.6 22.9 2345  68
2023 09 27 19  17 59 18.635   +13 39 22.20  2.2947 2.4485  86.6 22.9 2354  68
2023 09 27 20  17 59 20.651   +13 38 57.21  2.2951 2.4485  86.5 22.9 2363  68
2023 09 27 21  17 59 22.669   +13 38 32.23  2.2956 2.4485  86.5 22.9 2372  68
2023 09 27 22  17 59 24.689   +13 38 07.26  2.2960 2.4485  86.5 22.9 2382  68
2023 09 27 23  17 59 26.711   +13 37 42.31  2.2965 2.4485  86.5 22.9 2391  68
2023 09 28 00  17 59 28.735   +13 37 17.36  2.2970 2.4485  86.4 22.9 2400  68
2023 09 28 01  17 59 30.761   +13 36 52.42  2.2974 2.4485  86.4 22.9 2409  68
2023 09 28 02  17 59 32.790   +13 36 27.50  2.2979 2.4485  86.4 22.9 2419  68
2023 09 28 03  17 59 34.820   +13 36 02.58  2.2983 2.4485  86.4 22.9 2428  68
2023 09 28 04  17 59 36.852   +13 35 37.68  2.2988 2.4485  86.3 22.9 2437  68
2023 09 28 05  17 59 38.886   +13 35 12.79  2.2992 2.4485  86.3 22.9 2446  68
2023 09 28 06  17 59 40.922   +13 34 47.91  2.2997 2.4486  86.3 22.9 2456  68
2023 09 28 07  17 59 42.960   +13 34 23.04  2.3001 2.4486  86.3 22.9 2465  68
2023 09 28 08  17 59 44.999   +13 33 58.18  2.3006 2.4486  86.2 22.9 2475  68
2023 09 28 09  17 59 47.041   +13 33 33.33  2.3011 2.4486  86.2 22.9 2484  68
2023 09 28 10  17 59 49.085   +13 33 08.49  2.3015 2.4486  86.2 22.9 2493  68
2023 09 28 11  17 59 51.131   +13 32 43.67  2.3020 2.4486  86.2 22.9 2503  68
2023 09 28 12  17 59 53.179   +13 32 18.85  2.3024 2.4486  86.2 22.9 2512  68
2023 09 28 13  17 59 55.229   +13 31 54.04  2.3029 2.4486  86.1 22.9 2522  68
2023 09 28 14  17 59 57.280   +13 31 29.25  2.3033 2.4486  86.1 22.9 2531  68
2023 09 28 15  17 59 59.334   +13 31 04.47  2.3038 2.4486  86.1 22.9 2541  68
2023 09 28 16  18 00 01.390   +13 30 39.70  2.3042 2.4486  86.1 22.9 2550  68
2023 09 28 17  18 00 03.448   +13 30 14.94  2.3047 2.4486  86.0 22.9 2560  68
2023 09 28 18  18 00 05.507   +13 29 50.19  2.3051 2.4486  86.0 22.9 2569  68
2023 09 28 19  18 00 07.569   +13 29 25.45  2.3056 2.4486  86.0 22.9 2579  68
2023 09 28 20  18 00 09.632   +13 29 00.72  2.3061 2.4486  86.0 22.9 2588  68
2023 09 28 21  18 00 11.698   +13 28 36.00  2.3065 2.4486  85.9 22.9 2598  68
2023 09 28 22  18 00 13.765   +13 28 11.30  2.3070 2.4487  85.9 22.9 2608  68
2023 09 28 23  18 00 15.835   +13 27 46.60  2.3074 2.4487  85.9 22.9 2617  68
2023 09 29 00  18 00 17.906   +13 27 21.92  2.3079 2.4487  85.9 22.9 2627  68